Location: Mentone
(34.5413°N, 85.5351°W)
Time: 12:14:25
(UTC-06:00)

ATLAS 5 CENTAUR R/B - Visible Passes

Search period start: 28 January 2015 00:00
Search period end: 07 February 2015 00:00
Orbit: 708 x 954 km, 63.4° (Epoch: 18 January)

Date Brightness Start Highest point End Pass type
(mag) Time Alt. Az. Time Alt. Az. Time Alt. Az.
28 Jan 4.6 18:39:19 10° WNW 18:44:22 26° WSW 18:49:21 10° SSW visible
29 Jan 4.6 18:20:33 10° NW 18:25:43 28° WSW 18:30:50 10° SSW visible
30 Jan 4.6 18:01:48 10° NW 18:07:04 29° WSW 18:12:19 10° S visible
31 Jan 4.6 17:43:02 10° NW 17:48:25 31° WSW 17:53:48 10° S visible
03 Feb 3.6 06:07:33 10° S 06:12:10 39° ESE 06:17:03 10° NE visible
04 Feb 3.7 05:48:59 10° S 05:53:31 36° ESE 05:58:20 10° NE visible
05 Feb 3.8 05:30:24 10° S 05:34:51 34° ESE 05:39:35 10° NE visible
06 Feb 3.8 05:11:51 10° S 05:16:12 31° ESE 05:20:51 10° NE visible
